Date_and_time,latitude,longitude,wind_speed,RelWindDirFrom,WindDirFrom,air_pressure,air_temperature,relative_humidity,Temp,platform_speed_wrt_ground,air_pressure_at_mean_sea_level,platform_orientation
2018-10-04 23:40,51.6128266666667,-96.7187933333333,11.4,13.8,324,995.82,2.6,54,9.02,12.1,1023.64,359.4
2018-10-04 23:50,51.6319633333333,-96.7609983333333,11.7,14.7,287,995.76,2.4,54,9.00,11.7,1023.58,359.4
2018-10-05 00:00,51.6377866666667,-96.8,10.8,13.7,279,995.79,2.2,55,8.89,9.0,1023.62,349.8
2018-10-05 00:10,51.6393433333333,-96.8027616666667,1.7,5.3,293,996.12,1.4,59,8.27,0.8,1024.01,349.8
2018-10-05 00:20,51.639335,-96.8027616666667,1.3,1.8,265,996.13,0.8,61,7.99,0.0,1024.04,349.8
2018-10-05 00:30,51.63934,-96.8027583333333,1.4,2.0,244,996.07,0.5,65,7.97,0.0,1023.99,349.8
2018-10-05 00:40,51.63934,-96.8027616666667,1.2,2.0,249,996.08,0.2,68,7.94,0.0,1024.01,349.8
2018-10-05 00:50,51.6393383333333,-96.8027633333333,1.4,2.2,234,996.10,-0.0,72,7.89,0.0,1024.05,349.8
2018-10-05 01:00,51.63937,-96.80276,1.7,2.5,231,996.13,-0.3,77,7.86,0.0,1024.10,340.7
2018-10-05 01:10,51.639345,-96.8027733333333,2.0,3.6,214,996.05,-0.1,79,7.84,0.0,1024.01,340.7
2018-10-05 01:20,51.6393116666667,-96.8027733333333,2.7,7.8,227,996.14,0.2,79,7.84,0.0,1024.07,340.7
2018-10-05 01:30,51.6393333333333,-96.8027733333333,5.6,7.9,221,996.13,0.5,75,7.84,0.0,1024.07,340.7
2018-10-05 01:40,51.6393333333333,-96.8027716666667,5.4,7.2,230,996.11,0.4,75,7.83,0.0,1024.07,340.7
2018-10-05 01:50,51.6393333333333,-96.802775,5.0,6.4,240,996.13,0.2,77,7.82,0.0,1024.10,340.7
2018-10-05 02:00,51.6393333333333,-96.8027733333333,5.4,6.7,241,996.19,-0.0,80,7.80,0.0,1024.22,329.5
2018-10-05 02:10,51.6393316666667,-96.8027716666667,4.2,5.6,232,996.01,-0.1,78,7.77,0.0,1024.07,329.5
2018-10-05 02:20,51.6393433333333,-96.802765,4.8,6.3,233,996.12,-0.1,78,7.76,0.0,1024.20,329.5
2018-10-05 02:30,51.63933,-96.802765,5.5,7.2,233,996.02,-0.2,77,7.81,0.0,1024.11,329.5
2018-10-05 02:40,51.639325,-96.8027633333333,5.1,6.4,232,995.92,-0.1,77,7.85,0.0,1024.02,329.5
2018-10-05 02:50,51.6393266666667,-96.8027666666667,4.3,5.2,234,996.03,-0.0,77,7.88,0.0,1024.14,329.5
2018-10-05 03:00,51.6393266666667,-96.8027666666667,3.9,4.8,233,996.16,-0.1,79,7.93,0.0,1024.27,311.8
2018-10-05 03:10,51.6393466666667,-96.8027833333333,4.0,5.1,225,996.08,-0.2,78,8.00,0.0,1024.17,311.8
2018-10-05 03:20,51.6393266666667,-96.8027633333333,3.8,4.6,231,996.09,-0.0,76,8.04,0.0,1024.17,311.8
2018-10-05 03:30,51.6393233333333,-96.8027616666667,3.8,4.9,237,996.10,-0.1,77,8.08,0.0,1024.18,311.8
2018-10-05 03:40,51.6393216666667,-96.8027616666667,4.2,5.9,230,996.04,-0.3,78,8.10,0.0,1024.14,311.8
2018-10-05 03:50,51.6393216666667,-96.8027583333333,3.9,5.9,229,995.97,-0.4,77,8.11,0.0,1024.09,311.8
2018-10-05 04:00,51.6393216666667,-96.8027566666667,3.8,5.2,232,995.97,-0.3,77,8.10,0.0,1024.09,360.0
2018-10-05 04:10,51.639315,-96.8027616666667,4.8,6.5,230,995.99,-0.2,75,8.09,0.0,1024.10,360.0
2018-10-05 04:20,51.6393166666667,-96.8027483333333,4.8,6.5,228,995.96,-0.1,72,8.10,0.0,1024.07,360.0
2018-10-05 04:30,51.639325,-96.80276,5.2,7.3,222,995.86,0.1,71,8.09,0.0,1023.94,360.0
2018-10-05 04:40,51.63933,-96.802765,5.6,7.7,226,995.81,0.1,70,8.08,0.0,1023.89,360.0
2018-10-05 04:50,51.63933,-96.8027666666667,4.5,6.2,237,995.67,-0.2,72,8.07,0.0,1023.77,360.0
2018-10-05 05:00,51.6393316666667,-96.8027683333333,4.5,6.2,239,995.58,-0.3,74,8.06,0.0,1023.69,90.0
2018-10-05 05:10,51.6393316666667,-96.8027683333333,5.3,7.4,240,995.62,-0.4,74,8.04,0.0,1023.72,90.0
2018-10-05 05:20,51.6393233333333,-96.8027533333333,5.1,6.5,233,995.56,-0.4,74,8.04,0.0,1023.67,90.0
2018-10-05 05:30,51.6393283333333,-96.8027633333333,4.5,6.3,228,995.47,-0.4,74,8.08,0.0,1023.59,90.0
2018-10-05 05:40,51.6393316666667,-96.8027616666667,4.8,5.9,235,995.55,-0.3,75,8.10,0.0,1023.67,90.0
2018-10-05 05:50,51.6393333333333,-96.8027683333333,5.3,6.4,239,995.55,-0.3,75,8.12,0.0,1023.67,90.0
2018-10-05 06:00,51.6393333333333,-96.8027683333333,5.0,6.6,239,995.45,-0.3,74,8.13,0.0,1023.56,360.0
2018-10-05 06:10,51.6393333333333,-96.80277,3.6,5.0,242,995.38,-0.4,75,8.15,0.0,1023.48,360.0
2018-10-05 06:20,51.6393316666667,-96.8027716666667,2.6,4.3,243,995.28,-0.3,76,8.15,0.0,1023.36,360.0
2018-10-05 06:30,51.6393316666667,-96.8027716666667,2.0,3.5,227,995.12,-0.2,75,8.15,0.0,1023.19,360.0
2018-10-05 06:40,51.6393316666667,-96.8027716666667,3.2,4.3,226,995.05,-0.2,75,8.16,0.0,1023.14,360.0
2018-10-05 06:50,51.6393066666667,-96.8027666666667,3.9,5.3,223,995.05,-0.1,72,8.21,0.0,1023.14,360.0
2018-10-05 07:00,51.6393133333333,-96.8027566666667,3.8,4.8,228,995.00,-0.1,71,8.22,0.0,1023.09,143.7
2018-10-05 07:10,51.6393183333333,-96.8027566666667,3.3,4.9,229,994.95,-0.1,70,8.21,0.0,1023.04,143.7
2018-10-05 07:20,51.6393183333333,-96.8027566666667,3.1,4.2,227,994.93,-0.2,71,8.21,0.0,1023.03,143.7
2018-10-05 07:30,51.63932,-96.80276,3.0,4.0,240,995.02,-0.3,75,8.22,0.0,1023.12,143.7
2018-10-05 07:40,51.639325,-96.8027583333333,1.6,3.4,242,995.03,-0.5,77,8.22,0.0,1023.14,143.7
2018-10-05 07:50,51.6393233333333,-96.802755,2.1,3.9,238,994.81,-0.4,75,8.23,0.0,1022.91,143.7
2018-10-05 08:00,51.639325,-96.8027533333333,1.7,2.6,272,994.65,-0.5,72,8.25,0.0,1022.75,360.0
2018-10-05 08:10,51.639335,-96.8027866666667,1.5,3.2,245,994.55,-0.4,70,8.24,0.0,1022.64,360.0
2018-10-05 08:20,51.639335,-96.8027766666667,0.9,2.0,255,994.41,-0.2,69,8.22,0.0,1022.48,360.0
2018-10-05 08:30,51.6393333333333,-96.80277,0.9,1.6,265,994.46,-0.3,68,8.23,0.0,1022.53,360.0
2018-10-05 08:40,51.6393333333333,-96.8027683333333,0.4,1.9,24,994.47,-0.3,69,8.24,0.0,1022.54,360.0
2018-10-05 08:50,51.63933,-96.8027616666667,1.4,2.3,51,994.45,0.2,71,8.24,0.0,1022.49,360.0
2018-10-05 09:00,51.639325,-96.8027616666667,0.4,1.8,88,994.30,0.6,74,8.24,0.0,1022.32,360.0
2018-10-05 09:10,51.6393266666667,-96.802765,0.9,2.3,260,994.27,0.1,76,8.23,0.0,1022.33,360.0
2018-10-05 09:20,51.6393283333333,-96.802765,1.5,2.4,250,994.31,-0.0,78,8.24,0.0,1022.37,360.0
2018-10-05 09:30,51.63933,-96.802765,0.8,2.7,194,994.23,0.4,78,8.24,0.0,1022.28,360.0
2018-10-05 09:40,51.63933,-96.8027666666667,0.5,1.3,255,994.12,0.7,75,8.23,0.0,1022.15,360.0
2018-10-05 09:50,51.6393466666667,-96.8027783333333,2.5,7.2,110,993.91,1.4,74,8.22,0.0,1021.90,360.0
2018-10-05 10:00,51.6393366666667,-96.802785,2.0,5.4,156,993.80,2.0,79,8.22,0.0,1021.75,304.1
2018-10-05 10:10,51.6393166666667,-96.8027766666667,4.2,6.9,153,993.84,2.3,78,8.22,0.0,1021.76,304.1
2018-10-05 10:20,51.6393183333333,-96.8027716666667,4.9,7.0,143,993.63,2.5,79,8.22,0.0,1021.54,304.1
2018-10-05 10:30,51.6393183333333,-96.8027666666667,5.3,7.0,140,993.51,2.5,77,8.21,0.0,1021.42,304.1
2018-10-05 10:40,51.6393183333333,-96.802765,4.7,6.8,139,993.55,2.4,77,8.19,0.0,1021.44,304.1
2018-10-05 10:50,51.63932,-96.8027566666667,5.5,7.6,141,993.61,2.5,76,8.18,0.0,1021.48,304.1
2018-10-05 11:00,51.6393233333333,-96.802765,6.0,8.6,136,993.46,2.4,77,8.17,0.0,1021.35,270.0
2018-10-05 11:10,51.6393283333333,-96.8027583333333,6.1,8.4,137,993.27,2.5,77,8.16,0.0,1021.16,270.0
2018-10-05 11:20,51.6393266666667,-96.80276,6.2,8.9,137,993.27,2.6,76,8.15,0.0,1021.13,270.0
2018-10-05 11:30,51.639325,-96.8027633333333,6.1,9.3,140,993.49,2.6,75,8.14,0.0,1021.34,270.0
2018-10-05 11:40,51.6393266666667,-96.8027633333333,5.9,8.2,136,993.59,2.4,75,8.13,0.0,1021.41,270.0
2018-10-05 11:50,51.6393283333333,-96.8027633333333,6.4,9.1,129,993.49,2.4,74,8.12,0.0,1021.29,270.0
2018-10-05 12:00,51.6381466666667,-96.7988733333333,7.9,15.1,124,993.34,2.8,71,8.12,1.0,1021.09,115.9
2018-10-05 12:10,51.64779,-96.7651966666667,15.1,19.5,90,993.03,1.9,73,8.28,8.3,1020.82,115.9
2018-10-05 12:20,51.6776833333333,-96.7799083333333,9.3,17.1,33,993.42,1.1,79,8.71,11.3,1021.26,115.9
2018-10-05 12:30,51.70741,-96.80038,8.0,10.4,22,993.41,0.7,79,8.86,11.6,1021.27,115.9
2018-10-05 12:40,51.7368583333333,-96.822555,7.9,10.1,17,993.41,0.6,80,8.86,11.7,1021.27,115.9
2018-10-05 12:50,51.76289,-96.85582,5.7,8.1,349,993.39,0.6,79,8.82,11.9,1021.25,115.9
2018-10-05 13:00,51.7900533333333,-96.8860366666667,5.7,9.6,358,993.33,0.9,78,8.78,11.9,1021.17,341.1
2018-10-05 13:10,51.8191016666667,-96.9083066666667,6.4,8.3,18,993.39,1.2,77,8.81,11.6,1021.22,341.1
2018-10-05 13:20,51.8482633333333,-96.929005,6.4,8.5,30,993.50,1.4,79,8.61,11.5,1021.31,341.1
2018-10-05 13:30,51.8768883333333,-96.9513216666667,6.4,9.2,33,993.46,1.5,80,8.23,11.4,1021.28,341.1
2018-10-05 13:40,51.9061383333333,-96.971145,7.2,9.6,31,993.40,1.3,82,8.06,11.4,1021.23,341.1
2018-10-05 13:50,51.934645,-96.9932066666667,5.3,7.7,23,993.33,1.1,85,8.10,11.4,1021.15,341.1
2018-10-05 14:00,51.9636,-97.0138683333333,5.4,7.3,22,993.31,1.2,82,8.03,11.4,1021.17,338.2
2018-10-05 14:10,51.97608,-97.0232933333333,3.9,6.6,111,993.30,2.2,78,7.99,5.0,1021.15,338.2
2018-10-05 14:20,51.98346,-97.028665,5.3,7.2,116,993.21,2.9,73,7.94,2.9,1021.03,338.2
2018-10-05 14:30,51.9906166666667,-97.0349483333333,5.6,7.9,113,993.13,3.2,71,7.85,2.9,1020.94,338.2
2018-10-05 14:40,51.999265,-97.0415166666667,5.7,7.9,109,993.12,3.0,72,7.76,3.4,1020.95,338.2
2018-10-05 14:50,52.0000966666667,-97.042815,9.2,11.4,122,993.03,2.8,71,7.65,0.4,1020.84,338.2
2018-10-05 15:00,51.9998683333333,-97.04238,9.7,12.0,125,993.04,1.8,73,7.62,0.1,1020.89,337.5
2018-10-05 15:10,52.0239683333333,-97.05792,6.1,13.7,60,993.22,2.0,73,7.56,9.3,1021.06,337.5
2018-10-05 15:20,52.0526566666667,-97.079,7.5,10.7,37,993.21,2.0,74,7.70,11.3,1021.05,337.5
2018-10-05 15:30,52.081365,-97.0998616666667,7.7,10.2,37,993.19,2.0,72,8.08,11.3,1021.04,337.5
2018-10-05 15:40,52.109815,-97.1215266666667,7.6,9.7,37,993.21,2.0,71,8.14,11.3,1021.07,337.5
2018-10-05 15:50,52.138265,-97.143345,7.4,10.1,37,993.26,2.0,69,8.09,11.3,1021.11,337.5
2018-10-05 16:00,52.1670733333333,-97.1642183333333,7.3,10.0,38,993.21,2.0,70,7.90,11.3,1021.01,335.7
2018-10-05 16:10,52.195925,-97.1853933333333,7.2,9.2,37,993.15,2.1,67,7.75,11.4,1020.90,335.7
2018-10-05 16:20,52.2270216666667,-97.1891166666667,10.7,12.9,53,992.99,2.1,65,7.79,11.2,1020.72,335.7
2018-10-05 16:30,52.258465,-97.18915,10.8,13.0,53,992.96,2.0,66,7.93,11.3,1020.70,335.7
2018-10-05 16:40,52.2898366666667,-97.1886833333333,9.7,12.6,51,993.01,2.0,65,7.97,11.3,1020.77,335.7
2018-10-05 16:50,52.3213616666667,-97.1903283333333,10.0,12.5,53,993.08,2.0,68,7.88,11.4,1020.89,335.7
2018-10-05 17:00,52.3516833333333,-97.19686,9.1,12.6,48,993.11,1.9,72,7.66,11.0,1020.92,343.9
2018-10-05 17:10,52.3730733333333,-97.2346533333333,4.8,6.9,346,993.18,1.8,70,7.55,11.3,1021.00,343.9
2018-10-05 17:20,52.394205,-97.2734566666667,6.1,8.8,338,993.25,2.0,68,7.71,11.4,1021.06,343.9
2018-10-05 17:30,52.41553,-97.3116566666667,7.2,10.3,334,993.09,1.9,65,7.81,11.4,1020.90,343.9
2018-10-05 17:40,52.4364166666667,-97.3499116666667,7.4,10.5,345,993.03,1.7,69,7.77,11.3,1020.84,343.9
2018-10-05 17:50,52.4565783333333,-97.38873,7.9,10.1,330,992.88,1.5,73,7.93,11.2,1020.70,343.9
2018-10-05 18:00,52.47685,-97.42747,5.4,8.1,333,992.85,1.5,75,8.42,11.2,1020.67,333.8
2018-10-05 18:10,52.49739,-97.4660116666667,5.7,8.5,326,992.82,1.5,75,8.52,11.2,1020.63,333.8
2018-10-05 18:20,52.51754,-97.5048933333333,7.1,10.0,320,992.69,1.4,80,8.55,11.2,1020.51,333.8
2018-10-05 18:30,52.5382416666667,-97.5428466666667,5.4,7.9,321,992.63,1.4,81,8.88,11.2,1020.45,333.8
2018-10-05 18:40,52.5587066666667,-97.5810816666667,5.6,7.5,305,992.55,1.5,81,8.98,11.2,1020.37,333.8
2018-10-05 18:50,52.57935,-97.6191833333333,6.1,8.6,310,992.45,1.6,83,9.01,11.2,1020.26,333.8
2018-10-05 19:00,52.5997016666667,-97.6576866666667,6.3,9.6,303,992.41,1.6,84,9.01,11.2,1020.23,325.3
2018-10-05 19:10,52.6179,-97.69254,7.7,11.8,279,992.24,1.6,83,9.04,10.1,1020.05,325.3
2018-10-05 19:20,52.6238266666667,-97.70274,4.7,7.0,222,992.32,1.6,89,9.08,3.1,1020.13,325.3
2018-10-05 19:30,52.6283283333333,-97.7137116666667,4.9,7.1,231,992.25,1.5,87,9.11,2.9,1020.07,325.3
2018-10-05 19:40,52.62863,-97.726235,5.6,8.0,217,992.13,1.5,87,9.11,2.7,1019.96,325.3
2018-10-05 19:50,52.625195,-97.738035,6.0,7.8,208,991.97,1.7,85,9.10,2.9,1019.79,325.3
2018-10-05 20:00,52.6420283333333,-97.7331733333333,3.0,9.2,39,991.96,1.9,84,9.12,6.2,1019.77,311.9
2018-10-05 20:10,52.6421566666667,-97.73346,6.5,8.8,147,991.92,1.6,93,9.17,0.1,1019.74,311.9
2018-10-05 20:20,52.6422083333333,-97.733385,4.0,5.2,174,991.91,1.3,96,9.17,0.0,1019.74,311.9
2018-10-05 20:30,52.6421783333333,-97.7332916666667,3.4,4.5,201,991.84,1.5,99,9.15,0.0,1019.66,311.9
2018-10-05 20:40,52.654785,-97.717405,2.2,8.0,81,991.78,1.6,97,9.15,5.7,1019.59,311.9
2018-10-05 20:50,52.680085,-97.6878266666667,7.3,11.2,62,991.63,2.1,87,9.19,11.2,1019.41,311.9
2018-10-05 21:00,52.7052166666667,-97.6580383333333,8.9,12.0,62,991.52,2.4,73,9.18,11.1,1019.29,328.6
2018-10-05 21:10,52.731825,-97.63193,8.7,11.5,58,991.47,2.5,70,9.17,11.1,1019.23,328.6
2018-10-05 21:20,52.75767,-97.6039483333333,8.7,12.4,64,991.69,2.5,66,9.13,11.1,1019.46,328.6
2018-10-05 21:30,52.7835883333333,-97.5757266666667,8.6,12.0,71,991.71,2.6,64,9.10,11.2,1019.46,328.6
2018-10-05 21:40,52.7957333333333,-97.5625716666667,4.5,9.4,124,991.76,2.8,63,9.07,5.2,1019.50,328.6
2018-10-05 21:50,52.79575,-97.5627616666667,6.4,8.4,163,991.61,2.7,62,9.05,0.0,1019.35,328.6
2018-10-05 22:00,52.7957566666667,-97.5627183333333,5.6,8.7,164,991.62,2.8,62,9.04,0.0,1019.36,16.3
2018-10-05 22:10,52.7957566666667,-97.5627116666667,5.5,8.6,170,991.61,3.0,62,9.04,0.0,1019.36,16.3
2018-10-05 22:20,52.79578,-97.5627633333333,6.7,9.6,159,991.43,3.2,61,9.04,0.0,1019.15,16.3
2018-10-05 22:30,52.7988716666667,-97.5610083333333,5.7,10.9,170,991.49,3.1,61,9.04,1.2,1019.21,16.3
2018-10-05 22:40,52.8065316666667,-97.5607,4.1,6.3,151,991.56,4.7,57,9.04,2.8,1019.18,16.3
2018-10-05 22:50,52.8139316666667,-97.5587433333333,3.2,6.3,128,991.55,4.7,58,9.04,2.7,1019.15,16.3
2018-10-05 23:00,52.82155,-97.55812,4.1,6.7,117,991.58,4.6,57,9.00,2.7,1019.19,30.5
2018-10-05 23:10,52.8338466666667,-97.5900966666667,5.1,9.7,258,991.62,3.7,58,8.79,8.2,1019.27,30.5
2018-10-05 23:20,52.8274016666667,-97.6148983333333,7.3,13.0,198,991.43,3.1,60,8.84,5.9,1019.10,30.5
2018-10-05 23:30,52.8260633333333,-97.6161483333333,7.4,9.8,168,991.70,3.1,61,8.97,0.6,1019.37,30.5
2018-10-05 23:40,52.8261783333333,-97.6162366666667,5.5,8.5,163,991.81,2.7,61,9.00,0.0,1019.50,30.5
2018-10-05 23:50,52.8261766666667,-97.6160616666667,5.7,8.5,171,991.85,2.7,60,8.99,0.0,1019.55,30.5
